星链-34740 (STARLINK-34740)

导读

STARLINK-34740是美国SpaceX公司星链(Starlink)星座中的一颗卫星,于2025年7月26日由猎鹰9号火箭在佛罗里达卡纳维拉尔角发射入低地球轨道,属于星链10-26批次28颗卫星之一。 作为量产型低轨通信卫星,它采用平板设计,搭载Ku/Ka波段通信载荷与氪工质霍尔推进器,具备自主避撞能力,旨在为全球提供高速低时延宽带互联网服务,设计寿命约5-7年,退役后会再入大气层焚毁。

基本信息
目录编号:
64941
目录名称:
STARLINK-34740
国际标识:
2025-158K
轨道中心:
EARTH
卫星名称:
星链-34740
卫星全名:
星链-34740 (STARLINK-34740)
卫星状态:
在轨 (已飞行406 天)
发射日期:
2025-07-26 UTC
国别 :
美国 (US)
星等 :
--
轨道信息
数据来源 国际轨道数据 AOE轨道数据
星历时间 2026-09-04T08:45:14+0800
1天前
查看轨道信息
2026-09-03T18:00:00+0800
2天前
查看轨道信息
半长轴 6927.611km 6927.633km
偏心率 0.0001428 0.0001759
轨道倾角 97.286° 97.284°
近地点辐角 70.710° 82.185°
升交点赤经 105.738° 105.154°
平近点角 289.428° 187.929°
近地点 548.484km 548.277km
远地点 550.464km 550.715km
周期 95.639分钟 95.639分钟
每日圈数 15.056622 15.056552
详细信息
固有亮度:
5
最大亮度:
2.5
卫星平台:
Starlink V1.0
覆盖范围:
全球
运营商:
太空探索技术公司
运营商所在国:
美国
制造商(研发单位):
太空探索技术公司
制造商所在国:
美国
使用方式:
暂无
卫星简介
Starlink 计划是 SpaceX 推出的全球卫星互联网项目,通过发射低轨道卫星,为全球尤其是偏远地区提供高速、低延迟的互联网服务。自 2019 年起,Starlink 已部署数千颗卫星,旨在缩小全球数字鸿沟,推动互联网普及。该项目还为军事、航空等行业提供通信支持,带来广泛经济效益。
2D轨道图
3D轨道图
轨道高度分析图
轨道倾角分析图
轨道综合分析图
查看轨道综合分析图
交会数据列表
事件ID 空间交会对象 最接近时刻(TCA) 交会距离 交会风险概率(CRP) 交会风险指数(CRI) 操作
CDM_260905-085003-796806-494121
2026-09-05T
08:50:37+0000
0.521 km
远距离
8.65753E-5 中风险 0.74
CDM_260907-185604-379206-494122
ESEO (43792)
2026-09-07T
18:56:49+0000
0.733 km
远距离
7.555259E-5 中风险 0.73
CDM_260902-043306-001206-494121
OBJECT A (60012)
2026-09-02T
04:33:27+0000
2.754 km
极远距离
1.421801E-6 低风险 0.38